This demonstration page uses our WeatherBlox Daily Observations layout. Learn more.

Left ArrowRight Arrow

Hourly Observations for January 1, 2016

Temp ( °F °C ) Dew Point ( °F °C ) Humidity (%) Winds ( mph kmh ) Pressure ( in mb ) Visibility ( mi km ) Precip ( " mm )
12:53 am 00:53 Cloudy 32 0 22 -5.6 66 66 W 8 13 30.34 1027 10 16 0.00 0.00
1:53 am 01:53 Cloudy 32 0 22 -5.6 66 66 WSW 8 13 30.32 1027 10 16 0.00 0.00
2:53 am 02:53 Cloudy 32 0 22 -5.6 66 66 W 9 15 30.32 1027 10 16 0.00 0.00
3:53 am 03:53 Cloudy 32 0 21 -6.1 64 64 W 7 11 30.31 1027 10 16 0.00 0.00
4:40 am 04:40 Partly Cloudy 30 -1.1 19 -7.2 64 64 W 8 13 30.33 1027 10 16 0.00 0.00
4:53 am 04:53 Clear 30 -1.1 19 -7.2 64 64 W 7 11 30.32 1027 10 16 0.00 0.00
5:45 am 05:45 Mostly Cloudy 29 -1.7 19 -7.2 66 66 W 6 9 30.33 1027 10 16 0.00 0.00
5:53 am 05:53 Mostly Cloudy 29 -1.7 19 -7.2 66 66 W 6 9 30.32 1027 10 16 0.00 0.00
6:08 am 06:08 Partly Cloudy 28 -2.2 19 -7.2 69 69 WSW 3 6 30.33 1027 10 16 0.00 0.00
6:32 am 06:32 Mostly Cloudy 28 -2.2 19 -7.2 69 69 WSW 5 7 30.33 1027 10 16 0.00 0.00
6:53 am 06:53 Mostly Cloudy 28 -2.2 19 -7.2 69 69 SW 3 6 30.32 1027 10 16 0.00 0.00
7:13 am 07:13 Partly Cloudy 28 -2.2 21 -6.1 75 75 SSW 3 6 30.33 1027 10 16 0.00 0.00
7:53 am 07:53 Clear 28 -2.2 22 -5.6 78 78 SW 6 9 30.32 1027 10 16 0.00 0.00
8:53 am 08:53 Mostly Sunny 29 -1.7 23 -5 78 78 WSW 9 15 30.33 1027 10 16 0.00 0.00
9:30 am 09:30 Mostly Cloudy 30 -1.1 24 -4.4 79 79 SW 10 17 30.33 1027 10 16 0.00 0.00
9:53 am 09:53 Mostly Cloudy 30 -1.1 24 -4.4 79 79 WSW 9 15 30.33 1027 10 16 0.00 0.00
10:05 am 10:05 Partly Cloudy 31 -0.6 24 -4.4 76 76 WSW 14 22 30.33 1027 10 16 0.00 0.00
10:53 am 10:53 Mostly Cloudy 33 0.6 24 -4.4 70 70 WSW 14 22 30.32 1027 10 16 0.00 0.00
11:53 am 11:53 Partly Cloudy 35 1.7 24 -4.4 64 64 W 13 20 30.29 1026 10 16 0.00 0.00
12:53 pm 12:53 Mostly Cloudy 36 2.2 23 -5 59 59 WSW 15 24 30.26 1025 10 16 0.00 0.00
1:53 pm 13:53 Partly Cloudy 36 2.2 22 -5.6 57 57 W 14 22 30.24 1024 10 16 0.00 0.00
2:53 pm 14:53 Mostly Sunny 36 2.2 22 -5.6 57 57 W 13 20 30.24 1024 10 16 0.00 0.00
3:53 pm 15:53 Sunny 35 1.7 24 -4.4 64 64 WNW 15 24 30.25 1025 10 16 0.00 0.00
4:53 pm 16:53 Sunny 33 0.6 22 -5.6 64 64 WNW 12 19 30.27 1025 10 16 0.00 0.00
5:53 pm 17:53 Clear 30 -1.1 22 -5.6 72 72 WNW 8 13 30.27 1025 10 16 0.00 0.00
6:53 pm 18:53 Clear 30 -1.1 22 -5.6 72 72 WNW 7 11 30.29 1026 10 16 0.00 0.00
7:53 pm 19:53 Clear 29 -1.7 22 -5.6 75 75 W 6 9 30.29 1026 10 16 0.00 0.00
8:53 pm 20:53 Clear 28 -2.2 22 -5.6 78 78 W 5 7 30.29 1026 10 16 0.00 0.00
9:53 pm 21:53 Clear 27 -2.8 22 -5.6 81 81 WSW 5 7 30.29 1026 10 16 0.00 0.00
10:53 pm 22:53 Clear 25 -3.9 22 -5.6 88 88 Calm 30.29 1026 10 16 0.00 0.00
11:53 pm 23:53 Clear 29 -1.7 22 -5.6 75 75 WSW 3 6 30.28 1026 10 16 0.00 0.00

Powered by AerisWeather